DECAYED

STARLINK-31864, 60025 (Decayed)

Orbit data source: Space-Track

STARLINK-31864, 60025 was a payload satellite owned by SpaceX/Seattle (US) in LEO that was launched on Sat, 08 Jun 2024 UTC via an FALCON 9 launch vehicle from the Air Force Eastern Test Range (AFETR). Payload-class satellites include a variety of spacecraft equipped with specific instruments for various scientific and technological missions. These include communications satellites like Starlink; space stations such as the ISS; scientific satellites like the Hubble; Earth observation satellites from companies like Planet Labs, Umbra, and HawkEye 360; GPS; miniature CubeSats for education and research; and military/defense satellites.

Not visible in the next 10 days
Identifier
60025, 2024-111K
Orbit
Decayed
Country
Flag of USUS
Related business
Manufacturer
SpaceX/Seattle
Mission
Decayed Commercial Communications
Bus & Motor
STARLINK V2M, Unknown motor
Mass
730 kg wet, ~700 kg dry
Launch date (UTC)
2024-06-08 (2 years ago)
Launch vehicle
FALCON 9
Launch site
Air Force Eastern Test Range (AFETR)
Object type
Payload
Rocket body
Debris
Shape & HBR
Box + 2 Pan, 17.7 m
Radar Cross Section
33.884 m², Large (>1 m²)

Expand to show TLE details & history
Last TLE update: 6 months ago

TLE from 6 months ago
0 STARLINK-31864
1 60025U 24111K   25362.19183453  .13968210  12121-4  28876-2 0  9998
2 60025  53.1225  23.2130 0007761  74.9061 285.2841 16.30256711 88426
Epoch: 2025-12-28T04:36Z
TLE epoch observation values (Epoch: 2025-12-28T04:36:14.503Z)
Latitude
0.00002°
Longitude
-142.75477°
Altitude
191.444 km
Speed
7.794 km/s
True Right ascension
01h 32m 51s
True Declination
0° 00' 00"
Sunlit
Object was in full shadow at epoch
Visualization orbit readout
Latitude
Unknown
Longitude
Unknown
Altitude
Unknown
Speed
Unknown
Apparent Right ascension
Unknown
Apparent Declination
Unknown
Sunlit
N/A
Visualization observer readout
Local Sidereal Time
21:27:09
Azimuth
Unknown
Elevation
Unknown
Doppler factor
Unknown
Orbital elements
Apogee altitude
197.223 km
Perigee altitude
187.024 km
Semi-major axis
6,570.26 km
Eccentricity
0.00078
Inclination
53.1225°
RAAN
23.213°
Arg. of periapsis
74.9061°
True anomaly
285.19829°
Mean anomaly
285.2841°
Eccentric anomaly
285.2412°
Mean motion
4.07539 °/min
Orbital period
88.34 mins
BSTAR
0.0028876
Loading maneuver chart data...
Computing Atmospheric mass density...
Loading historical data...
Loading historical data...
Loading historical data...
Loading historical data...
Loading historical data...
Loading historical data...
Loading historical data...

Documentation

Showing up to 5 results
|